This is the latest recevied weather packets stored in our database for station/object IV3CGM-13. If no packets are shown the sender has not sent any weather packets the latest 10 day(s).
| Time | Temp. | Humidity | Pressure | Rain* | Wind** | Luminosity | Snow |
|---|---|---|---|---|---|---|---|
| 1777590788 | 8.33° C | 52% | 1026.9 hPa | 0 mm | - | 0 W/m² | - |
| 1777590101 | 8.33° C | 58% | 1026.9 hPa | 0 mm | - | 0 W/m² | - |
| 1777589412 | 8.89° C | 52% | 1027 hPa | 0 mm | - | 0 W/m² | - |
| 1777588725 | 8.89° C | 59% | 1026.9 hPa | 0 mm | - | 0 W/m² | - |
| 1777587988 | 8.89° C | 61% | 1026.8 hPa | 0 mm | - | 0 W/m² | - |
| 1777587287 | 8.89° C | 63% | 1026.7 hPa | 0 mm | - | 0 W/m² | - |
| 1777586600 | 9.44° C | 54% | 1026.6 hPa | 0 mm | - | 0 W/m² | - |
| 1777585912 | 8.89° C | 56% | 1026.5 hPa | 0 mm | - | 0 W/m² | - |
| 1777585225 | 9.44° C | 54% | 1026.3 hPa | 0 mm | - | 0 W/m² | - |
| 1777584488 | 8.89° C | 57% | 1026.2 hPa | 0 mm | - | 0 W/m² | - |
| 1777583787 | 8.89° C | 61% | 1026.1 hPa | 0 mm | - | 0 W/m² | - |
| 1777583100 | 8.89° C | 55% | 1025.9 hPa | 0 mm | - | 0 W/m² | - |
| 1777582412 | 9.44° C | 54% | 1025.8 hPa | 0 mm | - | 0 W/m² | - |
| 1777581724 | 9.44° C | 55% | 1025.7 hPa | 0 mm | - | 0 W/m² | - |
| 1777580988 | 9.44° C | 56% | 1025.5 hPa | 0 mm | - | 0 W/m² | - |
| 1777580287 | 8.89° C | 59% | 1025.4 hPa | 0 mm | - | 0 W/m² | - |
| 1777579599 | 9.44° C | 56% | 1025.2 hPa | 0 mm | - | 0 W/m² | - |
| 1777578912 | 9.44° C | 57% | 1025.1 hPa | 0 mm | - | 0 W/m² | - |
| 1777578225 | 9.44° C | 60% | 1024.8 hPa | 0 mm | - | 0 W/m² | - |
| 1777577488 | 10° C | 56% | 1024.7 hPa | 0 mm | - | 0 W/m² | - |
| 1777576787 | 10° C | 52% | 1024.5 hPa | 0 mm | - | 0 W/m² | - |
| 1777576099 | 10° C | 54% | 1024.3 hPa | 0 mm | - | 0 W/m² | - |
| 1777575411 | 10.56° C | 57% | 1024.1 hPa | 0 mm | - | 0 W/m² | - |
| 1777574724 | 10.56° C | 56% | 1023.9 hPa | 0 mm | - | 0 W/m² | - |
| 1777573987 | 11.67° C | 55% | 1023.7 hPa | 0 mm | - | 1 W/m² | - |
* Rain latest hour (hover to see other rain measurements)
** Current wind speed in m/s (hover to see current wind gust speed)